Theta_e
310 309 309 309 309 309 309 309 308 308 308 308 307 307 308 308 308 308 308 308 308 308 308 308 309 308 309 310 309 310 310 310 313 318 321 320 318 315 314 313 312 312 314 316 316 317 317 317 317 316 318 319 320 323 322 321 322 322 324 324 323 324 322 322 322 321 320 319 319 318 319 318 318 318 318 318 317 317 317 317 317 317 318 317 317 318 318 320
311 310 310 309 309 309 309 309 309 309 309 309 308 308 309 309 309 309 308 308 308 309 308 308 309 309 310 309 309 311 310 311 315 321 321 321 320 316 314 314 312 312 314 317 317 317 317 317 317 316 318 321 321 323 323 322 322 323 325 324 323 324 323 322 321 320 321 320 319 318 318 318 317 317 317 317 317 317 317 317 317 317 317 318 317 318 318 319
311 309 310 309 309 309 308 309 309 310 309 309 309 309 309 309 309 309 309 308 308 309 308 309 309 309 310 309 311 309 311 318 322 323 322 319 317 314 314 314 313 312 314 317 317 317 317 317 317 317 318 320 321 323 324 323 322 322 324 323 323 323 322 321 320 320 320 319 319 318 318 317 317 318 317 318 318 318 317 317 317 317 317 317 317 316 317 318
310 310 310 309 309 308 308 309 309 310 309 309 309 309 309 309 308 309 309 309 309 309 308 309 308 310 309 309 310 308 316 328 326 319 317 315 314 314 314 314 314 312 314 317 318 317 317 316 317 317 317 318 320 322 323 322 322 322 322 322 322 322 320 319 318 319 320 320 319 319 318 317 317 317 317 318 318 317 317 317 316 316 316 316 317 316 315 316
310 310 311 310 309 309 309 309 310 310 309 309 309 309 309 309 309 310 310 309 309 309 309 309 309 310 309 310 309 310 321 327 320 316 314 314 314 315 314 314 314 313 315 318 317 317 317 316 316 317 317 318 319 320 321 320 320 321 321 321 321 320 319 318 318 320 320 319 319 319 318 317 317 317 318 318 317 317 316 317 317 316 317 317 317 316 315 316
310 311 311 311 310 310 311 310 310 310 310 310 309 310 310 310 311 311 311 310 309 309 309 309 309 310 310 310 309 315 323 320 317 320 315 314 315 315 315 314 314 313 317 318 316 317 316 316 316 317 317 317 318 317 318 319 320 321 320 320 320 319 318 317 318 320 320 319 319 319 318 317 317 316 317 317 317 317 317 317 317 317 317 317 317 317 316 318
311 311 311 310 310 311 312 312 312 312 312 311 311 312 312 312 312 311 312 311 311 310 310 310 309 310 310 310 313 319 322 317 321 322 314 315 315 314 314 314 314 314 317 317 316 317 316 316 316 316 317 316 317 316 316 318 318 321 321 320 319 317 316 317 318 319 320 318 318 319 319 317 317 317 316 316 316 316 317 317 317 316 316 316 317 317 318 318
312 312 311 310 311 313 314 313 313 313 313 314 314 314 314 314 313 313 313 312 312 312 311 311 310 310 309 312 320 321 319 318 321 319 315 314 314 314 314 314 314 314 317 317 316 317 316 316 316 316 317 316 316 316 317 317 317 319 320 319 319 318 317 318 318 319 318 317 318 318 318 317 317 317 316 316 316 315 316 316 316 316 315 316 317 317 318 318
312 312 311 311 312 314 315 314 314 314 315 315 315 315 315 314 314 314 314 313 313 312 312 312 311 311 308 313 320 318 319 321 317 315 314 313 314 314 314 315 314 315 317 317 316 317 317 317 317 317 316 316 316 316 316 317 317 317 317 317 317 317 317 316 316 316 316 316 317 318 317 316 317 316 316 316 315 316 316 316 316 316 316 316 316 316 316 317
312 312 311 312 314 315 315 315 315 315 316 316 316 316 316 316 316 315 315 315 314 314 313 313 311 310 311 317 319 318 321 320 316 317 314 312 314 314 315 317 316 316 317 316 317 317 317 317 318 319 317 316 316 316 317 316 316 316 316 316 315 316 315 315 315 314 315 315 315 317 316 316 316 316 315 315 315 316 316 316 317 316 316 316 315 315 315 316
313 312 313 313 315 315 316 316 316 316 317 317 317 317 317 317 317 317 317 316 316 316 315 313 311 310 316 318 317 319 321 316 315 316 314 314 315 315 317 319 317 317 318 317 317 317 317 318 318 318 317 315 315 315 316 315 316 315 315 315 314 315 314 314 314 314 315 315 316 316 315 315 315 315 315 315 315 316 316 316 316 317 317 317 316 316 317 317
314 313 314 314 314 315 316 316 316 316 317 317 317 318 318 318 318 318 318 317 317 317 315 314 310 309 316 317 314 318 319 317 316 314 314 315 316 317 318 319 318 317 318 318 318 318 319 318 317 316 315 315 315 315 315 313 314 314 314 314 314 314 314 315 315 315 315 315 316 315 315 315 315 316 316 316 316 316 317 316 316 316 316 316 316 315 317 316
316 314 314 314 314 315 315 315 316 316 316 317 317 317 318 318 319 319 319 318 317 316 314 313 309 309 316 317 315 318 318 318 317 314 314 314 315 317 317 318 317 317 318 318 317 317 318 317 316 316 316 316 315 315 313 313 314 314 313 313 314 314 315 316 316 317 316 315 315 314 315 317 316 317 317 317 317 316 316 316 315 315 315 316 316 316 318 317
318 317 317 316 316 317 317 318 319 319 318 318 317 318 318 319 319 319 318 316 315 314 313 311 308 312 316 315 315 317 317 317 315 315 314 313 316 316 315 317 316 316 316 316 315 315 315 315 315 316 315 315 315 315 313 314 314 314 314 315 316 316 316 318 318 317 316 314 314 314 315 316 316 316 317 318 317 316 315 315 314 314 315 315 316 317 318 317
320 320 320 320 320 320 320 320 321 321 321 320 319 319 319 319 318 317 315 313 313 312 311 310 310 315 317 313 314 314 313 314 314 317 315 314 317 316 315 316 316 316 315 315 314 313 314 314 315 315 315 314 314 314 314 314 314 314 315 317 318 318 317 319 319 317 316 314 313 314 315 315 315 316 316 316 316 315 314 314 313 314 315 315 316 317 316 313
321 321 320 321 322 322 322 322 322 321 321 321 320 319 319 319 317 315 313 312 312 311 314 315 312 315 317 314 315 313 313 315 316 317 315 314 317 316 316 315 314 314 314 313 313 313 313 313 314 314 314 314 314 315 315 316 317 317 317 317 319 319 318 319 319 317 316 314 313 314 315 316 315 316 315 315 315 314 314 314 314 315 315 316 316 315 313 309
321 321 320 321 323 323 323 323 323 322 322 321 320 320 319 317 315 314 312 310 310 311 316 319 312 311 314 314 315 314 315 316 316 316 313 313 316 316 315 314 314 314 313 312 312 312 312 313 314 314 314 314 314 315 317 319 319 320 320 319 320 319 318 319 319 318 316 315 314 314 314 314 314 314 314 314 314 314 314 314 314 315 316 317 316 312 308 307
320 321 321 322 323 324 323 324 323 322 322 321 320 320 318 316 315 314 313 311 311 313 315 314 312 316 318 315 315 315 315 314 314 314 312 312 314 315 314 313 313 313 312 312 312 312 313 313 314 315 315 315 313 315 319 321 320 320 320 318 319 319 318 318 319 318 317 316 316 315 314 314 314 314 314 314 314 314 314 314 315 316 316 315 312 309 307 306
321 322 322 323 324 324 324 323 322 322 321 320 319 320 319 318 316 315 317 316 316 321 321 314 315 321 320 316 316 316 315 313 312 314 313 311 313 314 313 313 314 312 313 314 314 312 314 315 316 318 318 317 315 316 317 319 318 318 319 318 318 318 318 318 318 319 318 317 317 316 316 315 315 315 315 314 314 314 315 315 316 317 315 312 309 308 307 305
322 322 322 323 324 323 323 323 322 320 320 320 319 321 322 322 322 319 317 317 317 320 321 318 317 318 318 318 317 315 314 313 313 315 314 312 313 313 313 313 315 314 315 317 316 314 315 318 320 319 318 317 318 317 317 317 317 318 319 319 319 318 318 318 318 319 317 317 316 317 317 315 315 315 314 314 314 315 315 316 316 314 311 309 308 308 306 305
323 322 322 323 323 323 323 322 321 320 320 320 320 322 321 320 322 321 317 318 319 319 320 321 320 320 320 320 317 314 316 314 314 315 314 312 313 313 313 314 315 316 316 318 317 315 316 319 320 319 317 317 318 318 318 318 318 318 319 319 319 319 319 317 319 318 316 316 316 316 316 315 314 314 314 314 315 316 316 315 314 311 309 309 308 307 306 305
324 324 323 323 323 322 322 322 320 320 320 322 322 320 318 315 316 315 314 318 321 320 320 321 321 321 321 321 316 314 317 316 315 316 314 313 314 314 314 314 315 317 317 318 318 318 319 319 319 317 317 318 318 318 319 319 319 319 320 320 321 320 319 319 318 317 315 315 316 316 315 315 314 314 314 314 315 316 315 313 311 309 309 308 307 306 305 305
324 324 324 324 324 322 323 322 320 320 321 322 321 319 317 315 312 311 312 316 319 319 320 320 321 321 322 320 315 314 316 316 318 317 313 313 314 314 315 315 316 318 319 318 319 321 322 320 317 317 317 318 318 318 319 319 319 320 320 320 321 320 320 320 318 316 315 314 316 315 315 314 314 314 314 315 316 314 311 310 310 309 308 307 307 306 305 304
324 324 324 324 323 323 323 321 320 322 321 320 320 319 318 315 312 310 312 316 320 321 319 318 319 320 319 316 313 314 315 316 318 316 313 313 314 314 316 316 317 318 319 318 318 320 321 320 318 318 318 318 318 319 320 320 319 321 322 321 320 319 320 320 318 317 315 316 316 315 317 317 315 316 317 318 318 313 310 310 309 309 309 307 307 306 305 304
324 325 325 324 323 323 322 321 322 323 322 320 319 319 317 315 312 311 314 319 322 322 319 319 319 317 313 312 313 314 315 316 316 314 313 313 315 315 316 316 317 318 319 319 318 319 319 319 319 318 318 319 319 319 320 322 320 321 323 323 320 318 319 319 319 318 318 320 317 316 322 323 319 320 319 319 318 312 309 310 308 308 308 306 306 305 305 304
324 325 324 323 323 322 322 322 323 322 322 322 320 318 317 315 313 311 315 321 324 324 322 320 319 316 311 311 312 312 316 316 312 312 314 313 313 314 315 317 317 318 318 318 319 320 318 318 319 319 319 321 322 320 319 321 320 320 323 322 319 317 319 319 318 319 320 321 316 315 322 322 319 319 318 319 318 312 309 310 308 307 306 305 305 304 304 303
324 325 324 324 323 322 322 323 322 321 322 322 320 319 318 315 312 312 318 327 328 326 322 316 316 315 312 311 311 313 318 316 310 310 312 312 312 312 314 317 317 317 315 317 322 322 318 319 320 319 319 321 322 321 319 319 320 322 322 320 317 315 318 319 318 320 321 319 317 316 320 321 319 318 317 319 319 313 309 309 308 307 305 304 304 304 303 302
325 325 324 324 323 322 322 322 322 322 322 321 320 320 318 314 312 313 322 331 330 322 318 314 311 312 311 310 310 312 313 312 312 312 310 310 311 311 314 316 316 316 314 318 323 321 318 321 322 320 320 321 320 320 321 319 319 322 320 317 316 315 316 318 318 320 319 318 320 320 319 322 322 319 318 319 317 314 310 309 308 306 305 304 303 303 302 302
325 324 323 323 322 322 321 321 322 322 321 321 321 320 317 313 313 316 323 329 327 319 316 313 310 311 311 310 310 311 309 310 313 312 309 310 311 310 312 313 313 315 315 316 321 320 316 316 317 318 321 320 318 320 323 322 319 319 317 316 317 317 318 318 319 319 318 318 320 321 320 322 323 320 319 320 318 313 310 309 308 306 305 304 303 303 302 301
323 322 321 321 320 320 320 320 320 321 320 320 321 320 316 315 316 321 325 326 323 319 314 312 312 312 311 311 312 311 310 311 311 311 310 311 311 310 310 310 310 314 316 316 318 318 313 310 311 315 318 317 316 318 320 322 320 316 316 316 318 320 319 319 319 317 318 321 321 321 319 320 325 326 320 318 318 314 310 309 307 305 304 303 302 302 301 301
320 320 319 319 320 320 320 321 321 320 320 320 321 318 318 321 322 324 326 323 320 320 316 314 314 312 312 314 315 313 311 312 311 312 312 311 312 311 311 312 312 314 317 318 319 318 314 313 314 316 315 314 316 317 316 316 316 315 316 316 318 322 319 318 319 318 320 324 324 322 320 319 324 327 318 314 315 313 311 309 306 304 303 302 302 301 301 300
318 318 318 318 320 320 320 322 321 320 320 320 319 319 322 326 325 324 323 320 322 323 320 318 316 314 314 316 317 315 314 313 312 312 313 314 314 313 313 315 316 319 321 321 322 321 320 318 316 315 315 313 315 316 315 315 314 315 315 314 318 323 322 322 323 322 323 325 323 323 323 321 321 321 316 314 312 311 311 308 306 304 302 301 300 300 301 300
317 317 318 319 320 320 320 321 320 320 320 319 320 322 323 325 324 324 321 321 324 323 319 318 316 315 316 317 318 319 319 316 312 313 315 316 317 317 316 316 317 322 323 322 322 322 323 321 317 317 317 314 313 315 318 319 315 313 316 319 322 323 323 324 325 324 325 324 321 320 322 323 321 318 317 313 308 307 307 306 305 303 301 300 300 300 300 299
315 316 317 319 320 320 319 319 320 320 319 320 323 323 322 323 324 323 323 323 323 320 319 319 318 316 317 319 319 318 320 318 313 313 315 317 319 320 319 317 317 320 320 320 321 321 324 324 320 320 319 314 312 314 317 319 316 314 316 322 325 323 323 323 323 324 326 325 321 319 321 324 321 315 312 308 305 305 303 303 302 301 301 300 299 299 299 298
314 314 315 317 318 319 319 319 319 319 318 321 325 324 322 322 322 321 323 323 321 321 320 320 321 321 320 321 320 317 319 320 316 315 317 318 319 321 321 319 317 317 319 322 323 320 322 323 320 318 316 312 313 315 314 316 319 319 317 320 323 323 322 322 323 323 324 325 323 321 324 324 317 311 307 306 305 303 302 302 301 300 300 300 299 298 298 297
313 312 313 314 316 318 318 319 319 318 319 323 325 323 322 321 321 321 322 320 320 322 321 321 323 324 322 321 322 320 319 319 319 318 319 320 320 321 320 318 317 316 318 321 322 321 323 323 319 317 314 312 314 316 313 315 320 320 320 322 321 319 319 322 324 322 321 324 322 320 322 320 315 312 307 305 305 303 303 301 300 300 299 299 299 298 298 297
311 312 313 313 314 316 317 319 319 317 320 324 323 321 320 319 318 319 320 319 319 319 321 323 323 322 322 321 322 323 320 320 321 320 320 321 321 320 319 318 317 315 316 319 321 322 323 323 320 318 319 315 312 314 313 313 317 319 321 320 317 318 320 320 321 321 322 323 321 319 320 318 317 316 309 306 305 303 302 301 300 300 299 298 298 298 297 297
309 310 312 312 313 315 316 318 318 317 320 323 322 320 318 317 316 317 320 320 318 319 321 322 321 319 320 320 321 323 322 322 323 321 321 321 321 319 318 317 314 312 313 316 318 320 321 322 320 318 320 316 311 314 317 315 316 317 317 316 316 321 322 320 320 321 322 322 320 319 319 317 318 317 312 309 307 303 302 302 300 299 298 298 298 297 297 296
309 311 312 313 312 313 315 317 317 318 321 322 320 319 318 317 316 316 319 320 319 320 321 320 319 318 319 319 319 322 323 322 321 321 321 321 321 319 316 317 316 313 313 314 318 320 320 322 322 318 317 318 315 317 320 318 316 315 314 314 317 319 319 319 320 320 321 320 320 319 318 318 317 314 312 310 306 304 303 302 300 299 298 298 298 298 296 296
310 312 313 314 312 312 314 316 318 320 321 320 318 318 317 317 317 317 318 318 319 320 320 320 319 318 319 319 318 320 323 323 321 321 321 320 320 319 317 317 316 314 313 315 319 321 319 320 321 318 316 318 318 318 318 317 317 317 316 315 316 317 318 318 318 319 319 318 320 319 318 320 315 309 309 309 306 305 303 301 300 299 298 298 298 298 297 296
311 313 314 314 312 313 315 317 319 321 321 319 317 317 316 317 318 318 317 317 320 320 319 320 320 319 319 319 318 318 323 324 322 320 321 319 318 319 318 317 315 313 314 316 319 319 318 318 320 319 318 318 318 316 315 315 315 316 316 315 316 316 317 318 317 317 318 317 318 318 319 320 312 306 307 307 305 305 302 300 300 298 298 298 297 297 297 296
311 313 314 313 313 314 316 319 320 320 320 319 317 317 317 318 319 319 318 317 319 320 319 319 320 320 320 320 319 319 322 323 322 321 322 320 319 320 318 315 315 314 315 317 319 318 317 317 318 318 318 317 316 314 314 314 313 314 315 315 316 316 316 318 318 317 317 317 317 317 318 317 310 304 305 305 303 303 301 300 300 299 298 298 297 297 296 295
310 312 313 313 314 314 316 319 319 320 320 319 317 317 318 319 319 319 318 318 318 319 319 319 318 319 320 320 319 319 320 321 320 320 321 320 319 318 317 315 315 315 316 317 318 317 315 316 317 317 316 315 315 313 313 315 315 315 315 314 315 315 315 317 316 315 316 316 316 316 316 316 310 303 303 303 302 302 301 300 300 299 299 298 297 296 295 294
309 311 311 312 313 315 316 318 318 319 319 319 319 318 318 319 319 318 318 318 318 318 318 318 317 317 318 318 318 318 318 319 318 318 319 319 317 315 314 314 314 314 315 316 317 316 315 316 317 316 316 315 315 313 314 318 318 316 315 314 314 314 315 316 314 314 315 315 315 315 315 315 310 303 302 302 302 302 302 301 301 301 300 298 297 296 295 293
309 311 312 312 313 314 316 316 316 318 318 318 319 319 319 319 319 318 318 318 318 317 317 317 316 316 316 316 317 317 317 317 317 317 317 317 316 315 313 313 313 311 311 313 313 313 314 314 315 315 315 314 313 313 314 316 315 313 314 314 313 312 312 313 313 313 313 313 314 314 314 313 310 305 304 303 302 302 302 301 301 301 301 299 297 296 294 293
309 310 312 313 313 314 315 315 316 317 317 318 319 319 318 319 318 317 318 318 316 316 316 316 315 315 316 315 316 316 316 316 316 316 316 315 316 315 313 312 313 311 310 312 313 312 312 312 313 314 314 313 312 313 312 312 311 310 311 311 310 309 309 309 310 309 309 309 309 309 309 309 309 308 308 307 305 305 304 302 301 300 300 300 298 296 294 293
308 310 312 313 314 315 315 315 315 316 316 317 318 317 318 318 317 317 317 316 315 315 315 315 315 315 315 315 315 315 314 315 315 315 315 315 315 315 314 313 313 312 312 312 312 310 310 311 311 311 312 312 311 310 309 308 307 307 308 308 308 308 308 309 308 306 307 309 308 307 307 308 307 307 308 308 307 306 305 304 302 300 299 298 297 296 295 294
306 307 309 311 313 314 315 315 315 315 316 316 316 316 316 317 316 316 315 314 315 315 314 314 314 314 314 314 314 314 313 313 313 313 312 314 314 313 313 313 313 312 311 311 310 308 308 309 308 307 307 307 306 306 305 305 305 305 306 306 306 307 307 307 307 306 307 308 307 307 307 308 307 306 307 306 305 305 304 304 304 302 299 297 297 296 295 294
304 302 302 306 309 311 313 314 314 314 315 316 316 315 315 315 315 315 314 314 314 314 313 313 313 312 313 314 313 312 312 311 312 312 312 313 313 311 311 311 310 309 309 309 308 307 307 308 307 306 306 306 305 305 305 305 305 305 305 306 306 306 306 306 306 306 307 307 307 307 307 307 306 306 305 305 304 303 302 302 302 302 299 298 297 296 295 294
302 301 301 304 307 307 309 312 313 314 315 315 315 315 313 314 314 313 313 313 312 312 312 312 312 312 314 314 312 312 311 311 312 312 310 310 311 309 309 309 307 306 306 306 306 307 307 307 305 304 305 305 305 305 305 306 306 305 305 306 306 306 306 306 306 306 307 306 306 306 306 305 305 304 304 303 302 301 300 299 298 298 298 297 297 297 296 295
298 298 299 302 306 306 306 309 312 313 314 314 314 314 313 313 313 312 312 312 311 311 311 311 311 312 311 310 310 310 309 309 309 308 307 307 308 307 307 307 306 305 305 305 305 306 307 306 304 304 304 303 303 303 304 304 305 305 304 304 304 305 305 305 305 305 305 305 305 304 304 304 304 305 303 302 300 300 298 297 296 295 296 295 295 296 297 296
297 296 297 300 305 306 306 308 311 313 313 313 312 312 312 312 311 311 310 309 308 308 309 310 310 309 308 308 308 306 304 304 304 303 303 303 303 303 303 304 304 304 305 304 304 305 305 304 304 304 303 303 303 303 303 303 303 302 302 302 302 302 303 303 303 304 304 304 304 303 303 304 303 302 301 301 300 299 297 295 295 294 294 293 293 294 295 296
Wind_Speed
1 1 1 2 2 3 3 3 2 3 3 3 3 4 4 5 5 6 6 6 7 7 7 8 9 10 10 11 13 14 16 16 14 10 8 9 8 6 6 4 2 5 7 7 8 6 5 6 6 6 4 3 2 1 3 1 1 0 0 2 3 4 4 3 4 4 3 5 4 2 2 4 4 2 1 2 3 5 9 9 9 9 10 14 19 21 15 9
2 2 2 2 2 3 4 3 3 4 4 4 4 5 5 6 6 7 7 7 8 8 8 9 10 10 10 11 12 14 16 17 14 12 11 11 9 5 5 3 2 6 8 8 9 9 6 5 6 7 3 1 2 2 2 2 2 2 2 3 4 4 5 6 7 6 5 5 7 7 6 6 6 6 2 2 6 6 8 10 8 10 10 13 17 21 19 14
3 2 2 2 2 3 4 4 4 4 5 5 5 6 6 7 7 7 8 8 8 9 8 9 10 10 10 11 11 12 15 13 9 7 4 5 6 3 2 2 3 5 7 8 8 9 6 4 4 6 3 2 3 3 2 2 3 3 3 3 5 5 6 6 7 6 5 6 6 7 6 7 7 6 2 4 8 6 9 10 8 9 9 9 8 10 14 14
3 3 3 3 3 4 5 5 5 5 5 5 6 6 6 7 7 8 9 9 9 9 9 9 10 10 9 10 10 11 11 6 3 1 7 7 6 4 2 1 2 5 8 6 5 8 6 6 3 4 3 3 3 3 3 3 2 3 4 4 5 5 7 7 9 8 6 5 4 5 7 7 7 4 2 3 7 6 8 9 9 10 10 12 11 10 11 10
3 3 4 4 4 5 5 5 5 6 6 5 6 6 7 7 8 8 9 9 10 10 9 9 9 9 8 8 8 9 7 2 0 4 9 8 6 4 2 1 1 8 10 4 5 6 6 6 4 3 3 3 4 3 4 6 4 1 4 6 6 6 7 8 9 5 5 5 4 5 7 7 6 5 4 4 7 7 8 9 12 12 10 11 12 11 11 9
3 4 4 3 3 5 5 5 5 5 5 6 6 7 8 9 9 10 10 11 11 11 11 10 10 9 8 7 6 5 3 2 0 6 10 6 4 1 1 1 3 11 10 4 6 6 5 5 4 3 3 3 5 5 5 6 6 3 5 6 6 7 8 8 8 3 4 4 5 6 6 6 7 8 7 8 11 11 10 11 14 14 12 12 12 10 10 9
4 4 4 3 3 4 4 4 4 5 6 7 7 8 9 10 10 11 11 12 12 12 12 11 10 9 7 5 3 2 2 4 3 7 9 5 3 1 2 2 6 13 9 7 8 6 5 5 5 4 4 4 6 6 5 4 4 5 4 5 8 9 10 9 7 4 3 6 6 5 6 7 9 8 7 9 13 14 12 12 14 15 14 13 11 10 10 10
4 5 3 2 2 3 4 4 4 5 6 7 8 8 9 10 11 11 12 12 12 12 12 12 10 9 7 3 2 3 4 4 3 5 6 4 4 3 3 4 8 12 9 10 10 6 5 5 6 4 5 5 5 6 4 4 4 6 5 6 6 7 8 8 7 6 6 7 6 5 8 10 10 9 8 12 15 16 13 11 13 13 13 12 10 10 9 9
4 4 2 2 2 3 4 4 5 6 7 7 8 9 10 10 11 12 12 13 13 12 12 11 9 7 4 1 2 4 3 2 2 2 2 3 4 4 4 4 9 11 8 10 11 8 4 4 4 2 3 4 4 6 5 4 3 3 4 5 5 6 7 8 9 10 9 7 4 6 10 11 9 8 9 13 15 15 12 10 11 12 11 10 8 8 8 8
4 3 3 3 3 3 4 4 5 6 7 8 8 9 10 10 11 12 12 13 13 12 11 10 7 4 1 0 2 4 2 3 1 1 3 2 1 4 5 3 7 10 8 9 10 8 5 4 2 3 3 4 5 5 5 5 2 3 5 7 8 9 9 9 11 13 11 9 7 8 12 12 7 5 7 11 13 12 10 9 9 9 9 8 8 8 8 8
4 4 5 5 4 4 4 5 6 7 8 9 10 10 11 12 12 12 13 13 12 11 11 8 5 3 2 2 3 4 2 2 1 2 2 1 2 5 6 3 6 9 9 9 9 8 6 5 4 3 1 2 4 5 4 3 3 5 6 8 9 10 10 11 13 13 9 7 7 7 11 13 7 5 10 14 13 9 8 10 8 7 7 7 9 9 7 6
4 5 6 6 6 5 5 6 7 8 9 10 12 12 13 14 13 14 14 13 12 11 10 7 4 4 3 3 6 8 7 5 4 3 2 1 4 7 8 7 7 8 7 6 5 4 4 5 6 1 3 2 4 5 3 4 5 4 4 6 10 11 10 13 13 12 10 5 6 4 5 10 7 5 11 13 9 7 7 8 8 7 7 7 8 8 6 6
3 4 5 6 6 6 6 7 8 9 10 11 12 13 14 14 15 15 14 13 12 10 8 5 3 6 3 2 7 13 15 12 9 6 3 3 5 7 9 9 8 7 5 3 4 4 3 4 4 4 5 4 4 2 1 2 2 3 4 5 8 8 7 11 9 7 7 3 9 7 2 7 9 7 8 8 4 5 7 9 9 7 6 7 6 6 6 7
4 4 4 5 6 6 7 8 9 10 11 12 13 13 14 15 15 14 13 12 10 8 5 2 6 7 2 3 4 9 13 11 7 4 3 3 4 6 7 8 7 6 4 1 4 4 4 4 3 4 5 4 4 3 3 4 2 5 6 5 5 4 4 8 4 5 4 2 6 6 2 7 11 11 7 7 7 8 10 12 11 7 6 7 5 6 6 5
5 6 6 5 6 6 6 7 8 10 11 12 13 13 14 15 14 12 10 9 7 4 1 3 8 6 2 4 3 4 7 5 3 4 4 5 5 4 4 5 5 4 3 1 1 2 3 3 1 2 3 2 2 4 5 4 3 4 5 4 4 3 5 7 3 8 5 2 4 6 2 6 9 12 8 7 9 10 11 14 12 8 7 7 6 5 5 10
4 6 6 6 6 5 6 7 9 10 11 12 13 13 15 14 11 9 7 6 4 2 4 3 7 4 4 2 3 3 3 3 6 8 6 7 6 3 6 5 3 3 3 2 1 0 1 1 1 0 2 1 2 3 3 3 3 4 4 4 5 5 5 5 1 7 7 3 3 6 3 4 5 10 13 11 11 11 11 13 12 9 7 6 5 4 9 11
4 5 6 6 7 7 7 8 10 11 11 12 13 13 14 12 7 5 4 3 2 5 4 1 3 4 3 2 2 2 3 3 6 7 5 8 7 5 7 5 4 6 5 4 3 3 3 2 1 1 2 3 3 3 3 3 4 3 4 4 5 5 4 4 2 2 7 6 4 7 6 6 6 9 15 16 13 11 10 12 11 8 6 5 5 9 12 11
5 5 6 7 9 10 9 9 10 11 12 12 12 14 13 8 4 2 2 3 4 4 2 2 2 3 2 2 2 2 5 4 6 5 5 9 8 7 6 4 5 7 6 4 3 4 3 2 2 1 2 4 3 3 3 5 5 5 5 4 5 6 5 6 6 2 2 4 5 6 7 8 8 10 12 15 15 12 9 9 9 7 5 6 10 11 11 11
6 5 6 8 10 10 10 10 10 11 12 11 12 14 11 4 3 1 2 1 1 1 1 1 4 2 3 2 3 4 5 6 5 4 6 9 8 7 5 4 5 6 4 3 3 5 3 2 3 2 3 5 6 6 8 9 9 9 8 6 6 6 5 6 9 8 4 5 5 6 7 6 7 9 9 13 16 11 8 9 9 5 6 10 11 10 10 12
6 6 8 9 9 9 10 11 9 10 11 11 13 13 7 2 2 1 2 4 5 7 6 4 7 6 8 2 6 5 4 6 4 3 7 9 9 8 5 4 4 3 2 3 4 4 4 3 4 4 6 9 10 10 11 10 10 10 8 7 7 6 6 7 10 8 2 0 5 5 6 7 7 9 11 14 14 10 10 9 4 7 9 10 10 10 11 11
8 9 10 10 8 8 10 11 10 9 7 9 12 8 2 3 3 1 2 5 9 13 11 10 11 11 12 5 8 8 2 3 4 4 8 9 8 7 5 5 4 2 5 5 3 2 2 4 5 7 10 13 12 11 11 8 7 8 6 5 6 5 7 8 9 9 1 3 4 4 6 8 9 12 14 13 10 9 7 3 8 12 10 9 10 11 10 9
10 10 10 10 8 7 9 10 10 8 5 6 8 4 3 3 2 0 2 5 8 12 12 13 14 13 15 10 6 7 1 3 5 5 8 9 6 4 4 6 5 4 6 5 4 1 2 5 8 11 12 12 11 10 10 8 6 6 5 4 4 5 7 7 7 5 2 2 3 5 6 7 11 15 15 13 8 2 6 11 11 11 10 9 10 9 9 8
11 11 10 10 9 8 8 10 9 6 5 5 5 4 3 1 1 1 1 3 7 11 10 11 13 11 12 7 4 5 2 5 5 5 11 10 4 3 3 5 6 5 5 6 5 4 3 5 10 13 12 10 10 10 8 7 5 4 4 3 5 5 4 4 3 1 2 2 4 5 6 6 10 14 12 12 5 8 13 14 13 11 11 10 9 9 8 8
12 12 10 10 10 10 9 9 7 3 2 3 4 3 2 1 0 1 1 3 5 7 4 3 5 4 4 1 4 3 4 5 3 4 14 11 5 3 4 5 6 5 5 7 8 8 7 6 7 9 10 9 8 8 6 5 4 5 5 5 6 7 6 5 3 3 3 3 4 3 5 4 7 9 8 7 3 12 10 12 13 9 9 10 9 9 8 7
12 13 11 10 11 10 9 8 3 1 2 2 3 3 2 1 1 2 0 3 4 2 1 2 1 1 2 2 3 1 3 3 1 2 9 6 2 4 4 4 5 6 7 9 10 9 8 6 4 5 7 6 5 6 6 5 3 5 5 6 7 6 5 4 4 5 4 4 2 2 2 3 3 5 7 7 2 9 7 10 12 8 9 9 8 8 7 6
14 15 13 12 11 9 7 4 1 2 2 2 1 3 2 2 1 2 0 2 4 1 1 0 0 1 2 2 2 1 2 2 2 2 4 0 2 2 2 3 3 4 5 6 5 4 4 2 1 2 4 4 4 6 6 5 3 4 3 2 2 0 1 2 3 1 1 3 2 3 0 4 4 6 8 9 4 7 7 8 10 8 8 8 7 7 6 6
16 16 15 13 11 7 3 1 1 3 1 2 2 2 2 1 1 2 1 3 4 2 3 0 1 1 3 2 1 1 1 2 2 1 1 1 2 1 1 3 3 3 2 0 1 1 4 4 3 1 3 3 4 5 5 6 4 3 3 2 3 1 1 1 0 2 3 3 4 4 4 5 6 7 8 11 7 7 8 7 9 8 8 9 8 8 6 6
16 16 14 13 12 9 6 2 2 2 2 3 0 2 2 1 2 1 1 3 2 2 2 0 2 1 1 2 1 1 1 3 2 1 2 1 1 1 2 5 3 3 2 4 3 2 1 4 3 3 4 4 5 3 2 6 5 2 2 0 2 2 0 1 2 4 3 3 4 5 6 4 6 6 7 12 10 7 8 8 9 9 8 9 9 8 6 5
16 16 14 14 13 12 10 8 5 1 2 1 2 3 2 1 1 0 2 3 0 2 1 1 3 2 2 3 2 2 2 2 1 1 1 2 1 0 2 3 4 5 2 4 5 3 1 2 2 4 5 4 3 1 2 1 3 2 2 1 1 2 3 4 5 4 2 3 5 6 7 4 5 5 5 9 8 6 6 6 8 8 8 9 8 7 6 5
15 15 14 14 12 12 10 10 11 7 4 4 3 2 1 1 1 1 4 3 1 1 2 2 2 3 5 4 3 4 3 1 2 3 2 1 1 1 1 1 2 4 2 3 6 5 1 2 1 2 3 2 3 3 3 2 2 2 1 1 2 4 4 4 4 3 1 4 7 9 12 8 3 5 3 2 4 9 9 6 7 8 8 9 7 6 5 5
13 12 13 13 12 11 8 5 10 10 8 7 3 1 1 1 1 4 5 1 1 0 2 2 2 3 6 4 2 4 4 3 4 4 2 1 2 2 2 0 0 2 2 3 6 5 2 2 1 2 2 2 4 2 2 3 2 1 1 1 3 3 2 2 1 3 2 5 6 6 11 12 5 4 2 5 5 10 11 9 10 10 9 8 8 7 6 5
12 12 13 14 12 11 9 3 3 8 10 7 2 1 0 1 3 4 2 2 0 2 2 2 2 3 4 2 1 4 3 4 5 4 3 4 4 4 4 3 3 1 2 2 2 2 3 5 4 2 1 3 4 1 2 3 2 2 2 2 2 2 0 2 1 2 3 5 4 4 1 6 6 6 4 6 7 4 6 8 10 10 9 8 7 7 6 5
12 12 13 15 14 11 10 6 2 6 10 7 3 1 0 2 4 3 4 3 1 1 2 2 1 1 2 1 1 2 1 2 6 5 3 4 4 4 7 8 4 1 2 1 2 1 1 2 4 3 1 3 6 4 1 1 2 5 4 4 4 1 2 3 3 3 4 4 2 6 6 1 2 4 3 6 7 7 10 11 10 10 9 8 7 7 6 5
12 12 12 15 16 13 12 9 5 8 11 7 2 1 2 5 3 1 4 5 2 1 2 2 1 2 3 2 2 3 1 2 5 4 2 3 3 3 5 9 7 2 1 1 2 2 3 3 3 4 0 5 8 5 1 1 4 6 5 4 4 3 3 4 3 3 3 2 2 2 2 1 2 0 3 8 8 8 10 10 10 10 8 7 7 7 6 5
10 10 11 13 16 15 13 9 6 9 11 6 2 3 5 6 2 1 4 3 1 2 2 1 1 1 3 3 3 3 2 2 4 3 2 4 4 3 3 4 6 4 2 2 2 2 4 4 1 1 1 6 6 3 1 3 1 3 1 2 2 3 3 3 4 4 2 2 3 2 2 4 1 4 5 7 8 9 9 9 9 9 7 7 6 6 6 4
9 8 9 10 13 16 16 12 9 11 9 3 3 6 7 5 2 2 2 2 1 1 2 1 1 1 2 3 4 4 2 1 2 2 2 4 4 4 4 1 4 7 5 3 1 0 2 3 1 1 1 3 3 1 1 1 0 1 2 1 3 2 2 1 4 3 2 3 4 3 4 4 1 3 5 7 8 8 8 8 9 8 7 7 6 5 4 4
8 5 5 8 12 15 17 15 12 10 5 2 6 6 4 3 2 1 1 2 1 2 3 1 0 1 2 2 2 4 3 2 2 2 1 4 4 4 5 1 2 4 5 1 1 0 1 1 3 4 2 1 1 2 2 1 2 3 1 2 1 2 1 1 2 3 4 5 5 5 6 5 3 1 3 6 7 7 7 7 8 7 7 6 5 4 4 4
8 3 4 10 16 15 15 18 15 8 3 3 8 6 2 2 1 2 1 1 1 2 2 2 2 2 2 3 2 2 4 1 2 3 1 2 3 1 2 1 3 3 2 3 1 0 2 0 4 2 2 1 0 2 1 2 2 3 2 1 1 1 2 1 2 2 5 6 4 5 7 6 4 2 1 4 7 8 7 7 7 7 6 5 5 5 4 4
8 3 3 9 17 17 16 18 14 5 2 5 8 6 2 2 4 5 0 2 1 2 1 3 3 2 4 4 3 1 4 3 2 3 1 2 3 2 3 1 1 3 5 4 2 1 3 1 3 1 4 2 1 1 1 1 3 3 2 2 1 2 2 2 2 2 4 6 5 4 6 5 3 2 2 3 8 9 8 7 6 6 6 5 5 5 4 4
6 2 1 5 14 18 18 16 9 3 4 6 5 4 2 2 5 6 3 2 1 1 2 4 4 5 6 5 5 3 2 2 2 2 1 1 2 1 4 3 2 1 5 5 2 0 1 2 3 0 2 2 0 2 4 4 3 0 1 1 1 1 2 2 2 2 3 4 4 5 6 4 1 2 3 5 7 7 7 7 6 5 5 4 4 5 4 4
2 1 1 6 15 21 18 10 5 4 5 5 4 5 5 3 3 3 3 3 3 1 1 2 4 5 5 5 6 3 1 2 3 3 3 3 4 2 2 4 1 2 2 3 1 0 0 1 2 2 2 2 3 4 3 3 2 0 1 3 4 2 1 2 4 4 3 3 4 5 7 5 1 2 3 6 5 5 7 7 6 5 5 5 5 5 5 5
1 1 1 8 19 23 15 5 5 4 4 6 6 5 5 3 3 4 3 3 4 2 2 2 4 4 5 5 4 3 2 2 3 4 3 3 5 3 1 2 3 2 2 1 1 1 2 1 1 3 4 6 8 7 7 7 7 6 4 3 3 2 2 3 5 3 2 3 4 5 7 4 1 1 2 5 5 6 7 7 7 6 6 6 6 5 5 5
2 2 2 10 21 21 10 4 6 5 5 5 5 6 5 3 3 5 5 4 3 4 3 3 4 5 5 5 4 4 4 3 4 5 3 3 4 1 1 1 1 2 1 1 0 2 2 1 1 3 4 6 9 9 8 7 5 5 4 2 1 2 2 2 2 1 1 4 5 5 7 4 2 1 2 3 5 6 5 7 7 6 5 5 6 6 5 5
2 1 1 8 20 18 8 6 8 7 7 6 5 7 6 4 5 6 7 7 5 4 4 3 4 6 6 5 5 5 4 3 4 5 3 3 2 2 3 2 2 2 1 1 1 1 1 0 0 2 3 3 5 6 4 3 3 1 2 3 3 4 5 4 0 1 1 5 7 6 6 4 1 1 1 1 3 4 5 5 6 6 6 6 6 6 5 5
2 2 1 6 14 13 6 5 6 6 9 10 10 10 8 5 6 8 8 7 5 4 3 3 5 5 4 4 4 4 4 4 3 2 1 1 1 3 4 5 5 3 3 3 2 1 1 1 1 2 3 4 4 4 1 2 2 2 3 4 5 5 6 5 2 3 4 5 5 5 6 4 2 2 3 4 4 5 5 4 4 5 6 6 6 6 5 5
3 3 2 3 6 6 5 4 4 4 7 10 9 10 12 10 5 6 7 7 7 7 4 2 2 1 1 3 3 3 4 5 4 2 2 1 1 1 3 6 6 4 5 4 3 2 1 1 2 4 5 5 5 6 5 3 3 4 6 7 8 9 8 5 3 6 6 5 5 8 10 9 8 8 7 4 6 7 6 6 7 7 7 7 6 6 5 4
3 3 4 5 3 5 6 6 6 6 6 7 6 6 11 12 7 4 5 5 5 6 5 4 4 4 3 4 4 4 5 5 5 6 6 5 3 1 4 5 6 5 5 3 1 2 2 2 5 5 6 7 7 9 10 8 7 7 8 10 11 10 8 7 8 8 5 4 7 11 11 11 10 11 9 6 4 5 6 7 8 8 8 7 6 5 5 4
3 2 2 3 3 6 8 9 11 11 10 8 5 4 8 11 9 6 4 3 2 2 3 4 7 9 8 6 4 3 4 5 6 6 5 4 2 2 3 3 4 4 4 2 1 2 2 3 5 4 6 8 9 10 10 9 8 8 9 11 11 12 12 11 11 10 6 7 10 10 11 13 11 9 10 10 10 10 10 10 8 6 7 6 6 6 6 6
2 2 3 2 1 5 8 9 11 12 13 11 7 6 8 9 10 6 4 4 2 2 3 4 6 7 7 6 6 5 5 5 4 3 1 1 2 2 1 1 3 2 2 2 1 1 1 3 4 3 5 8 10 10 8 7 9 10 11 12 13 15 15 13 12 13 11 12 12 12 14 15 11 10 12 10 9 8 7 7 4 4 5 5 6 6 6 6
1 1 1 1 1 1 1 4 8 8 11 11 9 8 7 7 9 5 4 5 4 4 5 6 6 3 2 0 2 4 3 1 2 2 2 3 1 2 1 0 2 3 3 3 1 2 1 2 3 2 4 7 9 8 6 5 7 9 11 13 14 15 14 13 13 13 12 12 13 14 14 13 9 7 6 3 3 4 5 5 4 5 5 5 5 6 6 7
2 2 2 1 1 2 1 1 6 7 7 9 10 9 7 7 8 4 2 3 4 4 6 8 6 3 4 2 1 1 2 6 6 4 4 4 1 1 1 1 3 3 1 1 0 1 1 2 3 2 4 7 8 9 6 3 4 8 13 16 16 14 12 12 11 10 10 11 13 13 11 9 4 1 2 2 3 4 4 3 2 2 5 6 5 5 6 6
2 3 4 2 1 3 3 2 4 6 7 8 8 8 7 7 7 5 3 1 4 3 2 5 6 4 3 3 2 4 6 7 7 5 4 3 2 2 1 1 2 3 3 2 2 1 2 1 1 2 5 7 8 8 3 3 4 9 12 13 14 14 14 13 11 11 13 12 10 10 8 5 3 1 1 1 3 3 2 2 3 2 2 2 3 5 5 6
Wind_Direction
333 334 349 2 5 355 350 352 337 325 321 314 308 305 309 310 310 313 317 319 319 323 324 320 319 321 325 325 323 324 320 320 320 295 252 264 285 301 301 292 248 193 175 147 149 169 170 198 202 181 185 141 205 209 123 183 180 216 222 221 248 247 263 340 331 329 0 339 337 296 334 348 332 344 80 13 298 262 275 273 267 262 242 239 241 250 253 229
331 335 352 356 356 342 335 346 343 329 326 326 320 316 317 318 323 321 320 322 322 326 326 323 320 322 327 324 326 325 321 322 314 282 259 263 262 275 304 292 231 182 175 164 171 191 192 202 186 176 204 172 172 149 146 174 158 220 235 241 251 254 281 324 317 329 352 324 321 321 343 354 340 335 0 297 291 293 289 284 282 278 260 249 241 242 240 223
326 328 335 337 341 333 333 343 341 337 341 344 338 334 334 334 333 329 329 329 328 330 330 328 323 326 329 327 328 326 325 326 309 281 252 239 220 213 343 300 219 188 182 174 188 215 241 286 184 175 221 235 189 145 163 164 149 213 218 249 252 268 294 309 311 324 332 328 329 325 354 347 314 314 320 288 292 290 278 278 282 281 286 300 294 264 251 231
323 325 334 336 345 355 353 350 351 355 359 356 350 349 346 344 343 340 337 333 331 332 333 333 329 332 333 332 331 328 331 325 299 111 133 148 157 145 59 7 212 181 178 178 227 239 263 300 231 189 236 256 231 174 174 176 154 201 189 233 261 296 310 305 310 325 342 1 4 332 335 313 299 307 295 290 289 271 262 267 275 282 299 312 316 311 296 275
331 337 350 346 356 13 5 358 5 7 6 0 356 355 351 349 347 343 339 335 333 333 335 336 334 335 337 336 330 332 340 319 175 135 151 151 148 137 59 16 188 168 169 191 259 243 245 264 239 219 237 256 263 220 209 197 173 240 233 242 263 288 291 288 302 340 22 4 336 309 302 298 306 305 273 262 265 258 259 269 276 281 288 292 295 300 299 291
350 355 355 349 5 16 7 4 8 6 4 359 357 355 350 347 343 340 336 333 333 332 335 337 337 339 342 339 335 345 334 279 210 173 179 178 170 153 15 343 178 167 168 221 237 221 228 236 220 225 229 237 258 249 248 216 181 211 248 255 266 274 277 287 300 341 39 332 301 289 291 302 299 287 274 259 256 255 258 266 273 275 273 274 279 285 285 277
3 3 350 354 15 14 9 9 8 5 4 1 359 353 348 345 340 336 333 331 331 330 331 334 334 336 340 337 335 350 256 275 290 194 192 205 210 249 274 219 184 173 177 223 220 209 216 221 217 227 243 246 251 248 261 262 218 219 248 270 276 278 278 285 297 312 326 295 281 281 287 286 277 276 277 264 262 262 260 262 268 274 276 273 267 265 271 274
6 0 352 11 22 19 16 14 12 10 8 3 357 351 346 341 335 330 328 325 324 324 325 327 329 333 341 343 316 297 240 265 285 196 200 236 254 264 241 200 185 178 191 218 215 216 217 227 236 242 255 247 262 277 300 318 273 250 259 268 268 273 284 294 302 298 287 275 270 275 273 264 263 270 273 268 268 267 262 259 262 270 274 269 263 262 264 268
14 9 23 41 42 36 28 20 18 15 8 1 355 349 342 336 331 326 322 320 318 319 318 320 323 323 328 344 306 289 259 273 264 210 259 281 276 248 215 196 188 183 208 225 224 235 222 228 246 275 300 274 288 301 306 299 264 260 288 303 301 296 301 303 297 287 276 269 253 259 266 259 259 270 267 259 260 264 264 255 249 256 263 262 267 272 272 272
31 47 62 59 60 50 38 28 20 13 4 357 350 345 339 334 329 324 321 318 315 313 312 315 316 307 309 231 258 257 276 323 316 349 331 318 277 202 181 196 201 195 220 231 229 241 238 253 282 58 6 311 302 295 281 269 287 3 324 311 305 295 290 280 273 269 265 263 245 252 271 271 268 274 269 258 255 259 265 264 249 243 254 266 278 278 278 278
41 61 61 52 49 43 39 26 15 8 358 352 346 342 338 333 329 325 322 318 314 313 311 311 295 251 158 184 239 239 251 302 340 11 339 20 140 181 178 195 213 211 233 242 234 247 266 303 18 58 347 357 315 288 280 301 4 6 332 312 294 285 280 268 262 259 253 245 219 229 274 281 275 242 249 259 261 261 263 272 268 253 255 266 278 282 284 278
45 63 57 49 42 36 34 20 11 4 355 350 345 341 338 332 330 326 322 318 315 313 311 309 267 202 174 213 233 233 241 256 273 296 291 167 169 188 192 195 202 217 249 273 263 270 303 4 32 322 272 351 316 291 297 347 5 347 322 301 283 279 272 262 260 251 242 216 147 133 298 288 272 236 251 257 255 263 272 278 280 276 275 278 289 298 298 286
41 65 61 54 47 37 30 19 8 2 354 348 343 340 335 331 328 324 321 318 315 314 314 305 217 177 175 251 227 228 239 247 260 274 252 211 202 205 211 204 191 205 239 319 358 5 0 5 3 294 287 302 298 308 286 308 338 286 270 265 278 291 274 263 260 232 224 174 118 109 305 281 281 278 283 288 290 305 301 290 286 290 291 287 288 290 290 300
9 24 44 49 44 35 25 15 5 359 352 344 340 336 331 328 324 322 320 317 316 316 313 254 176 157 174 261 223 220 229 238 253 257 225 194 188 209 225 216 202 209 222 331 6 11 13 7 352 298 288 272 272 321 302 275 254 265 264 245 258 279 267 267 252 147 151 189 135 126 229 268 287 288 290 317 331 328 309 292 291 300 298 295 293 292 304 1
353 352 5 21 27 27 16 7 0 356 351 343 337 332 328 325 322 323 323 320 326 323 351 150 167 158 277 262 218 208 214 221 200 182 189 173 176 204 202 199 205 205 206 196 0 3 17 38 50 285 283 250 252 289 295 277 249 253 266 265 240 226 263 283 248 156 158 237 165 139 209 252 273 289 300 321 317 311 298 288 293 299 293 298 298 310 3 40
333 327 336 356 4 9 3 355 351 348 347 341 334 329 324 323 322 326 328 327 337 112 115 128 171 180 304 260 160 170 189 187 177 185 199 181 182 178 145 148 154 156 164 159 152 75 82 123 140 306 294 293 223 240 267 281 266 237 234 256 253 236 260 287 245 169 153 115 194 188 220 259 272 298 303 300 292 288 284 282 289 292 287 292 300 14 46 46
288 304 325 348 351 353 353 346 342 339 342 340 331 325 323 321 318 328 347 4 87 117 100 41 179 192 269 228 185 178 144 157 182 196 211 186 175 150 144 145 145 147 133 121 139 149 142 158 144 112 220 249 253 251 284 275 255 250 241 253 264 266 281 299 340 133 137 131 210 220 221 250 262 282 288 287 284 278 276 284 292 297 301 318 22 55 57 50
273 309 332 348 352 352 350 344 340 337 340 340 329 324 324 315 299 333 33 70 99 114 62 6 199 209 227 196 206 144 127 153 174 182 193 178 167 158 169 167 142 149 145 137 158 161 157 169 163 189 231 231 242 228 232 237 241 266 274 283 290 294 312 309 306 311 169 185 217 226 229 244 257 263 273 283 284 280 281 290 293 300 330 24 55 62 57 52
282 314 326 345 354 349 347 346 343 341 341 343 336 327 325 306 267 242 191 206 118 187 326 158 192 249 308 218 152 121 124 145 154 162 176 170 164 167 190 187 154 169 166 145 188 180 163 139 155 199 232 228 227 209 218 232 244 263 272 281 290 294 298 288 284 291 302 275 251 246 258 270 276 275 277 277 278 285 290 285 288 315 30 57 63 61 56 55
299 313 320 344 353 341 344 347 346 348 345 350 347 329 319 329 295 214 198 230 238 265 287 250 221 257 291 277 129 133 141 156 164 158 166 162 156 163 185 192 171 203 217 162 175 171 154 172 187 190 212 233 236 231 236 238 243 259 269 275 278 285 284 277 282 292 19 30 262 271 286 286 286 283 275 271 277 289 283 280 320 52 65 66 65 61 58 57
294 301 312 332 336 331 339 343 345 350 358 358 348 329 349 24 324 347 331 265 249 255 264 261 252 256 268 261 144 156 152 196 200 148 161 164 158 166 176 188 173 198 230 193 138 81 154 196 213 207 220 236 243 252 262 267 270 275 280 283 286 282 278 280 285 289 59 122 272 301 300 291 292 282 272 272 279 287 293 353 63 71 70 65 65 61 57 57
280 287 299 311 314 320 331 338 339 349 16 5 347 355 66 32 331 98 306 284 268 262 262 259 256 252 256 257 172 162 136 225 202 141 162 169 169 191 168 178 193 199 218 187 117 72 214 222 228 224 231 241 250 262 269 275 284 287 290 292 285 266 273 282 277 280 93 134 276 310 300 293 290 282 279 278 273 308 50 71 74 73 69 61 59 55 50 50
273 279 285 297 303 308 319 330 335 354 23 14 16 46 62 11 340 70 238 278 280 260 250 246 247 245 245 241 149 153 198 226 228 172 170 168 166 219 184 183 214 226 212 186 172 202 208 219 225 226 236 245 252 260 263 269 263 252 256 262 265 253 258 271 251 173 89 195 246 285 288 287 283 280 284 278 246 90 77 81 78 75 79 72 65 58 47 40
267 268 269 285 295 299 309 319 328 357 24 41 60 48 31 348 265 115 215 270 270 250 248 255 252 257 254 184 110 171 220 217 255 176 174 179 165 182 216 206 216 237 224 204 209 228 237 246 236 221 229 242 252 261 258 263 263 245 229 222 242 245 244 256 290 350 347 284 258 286 295 271 264 275 297 290 141 100 90 91 85 80 84 79 73 65 51 42
264 261 264 278 284 295 307 309 310 201 209 130 86 11 8 8 184 145 239 267 249 247 327 26 54 37 33 67 104 196 233 206 357 108 166 193 191 164 209 213 214 235 231 226 229 239 250 264 265 222 223 231 243 257 245 234 261 264 237 225 235 245 257 281 334 353 346 310 287 65 332 263 257 291 300 291 144 102 94 98 95 88 81 74 67 60 48 41
260 258 262 267 269 285 302 301 170 191 230 156 142 334 341 352 146 157 30 281 252 217 109 119 128 165 137 118 146 195 259 217 35 63 142 205 295 206 219 197 194 235 240 241 246 249 237 214 86 204 222 211 220 252 247 223 240 255 247 273 276 301 324 304 328 331 210 274 249 123 202 256 273 280 268 265 224 118 105 102 100 94 85 82 74 61 41 27
255 253 254 252 251 263 283 352 184 234 234 150 196 318 335 356 137 168 218 278 262 144 113 285 331 159 142 125 200 208 202 164 106 43 88 357 281 228 251 198 175 219 230 210 314 284 204 174 85 88 214 204 216 249 234 195 201 239 244 340 22 49 329 313 169 220 223 279 268 206 211 256 270 251 239 255 240 140 120 111 101 97 92 90 85 75 56 32
248 242 238 239 238 240 237 258 288 254 133 109 258 314 347 43 155 173 280 283 280 113 118 162 93 92 123 122 219 237 120 157 159 55 39 330 272 109 236 239 254 261 203 161 202 298 159 163 161 166 184 207 210 233 215 179 185 215 210 95 59 85 102 134 178 227 245 295 270 213 199 244 270 243 226 244 233 151 133 131 115 113 109 99 97 94 86 65
238 231 231 234 235 238 237 236 240 212 133 136 304 315 15 85 192 278 262 258 30 96 94 110 126 140 144 147 195 194 154 176 215 93 154 218 224 82 235 249 301 302 251 188 215 270 27 142 204 179 179 207 186 103 6 166 179 196 182 105 96 178 208 196 199 215 224 257 246 206 184 210 272 260 223 231 217 144 132 132 114 113 111 102 99 97 96 88
230 228 228 225 225 231 230 228 227 219 213 236 276 319 46 136 216 208 218 234 356 68 112 129 142 144 167 181 190 192 187 146 101 132 173 166 141 254 269 140 314 299 276 247 250 260 142 86 337 231 205 192 117 81 14 53 132 165 136 9 269 240 221 201 188 165 186 260 245 212 194 193 271 283 229 216 169 144 144 145 131 123 115 108 102 92 84 80
216 216 211 204 211 212 198 221 232 220 228 242 252 314 247 191 220 216 214 226 349 125 136 145 137 155 191 199 162 189 192 153 138 154 178 134 131 205 264 239 175 309 312 281 265 259 194 164 233 234 220 130 108 86 5 35 76 118 105 314 290 275 203 171 130 130 188 257 260 234 202 193 217 278 322 43 91 145 154 156 148 135 120 111 103 95 85 73
203 204 198 193 202 204 189 203 232 207 218 224 194 160 267 224 226 224 206 63 57 207 166 151 149 173 198 193 151 183 176 158 165 185 196 165 167 194 211 208 159 167 256 237 253 257 213 212 196 180 259 151 134 118 7 9 62 131 180 204 260 311 222 194 183 162 210 240 273 351 65 190 215 270 313 42 53 83 107 120 126 118 109 102 97 94 86 75
201 202 199 197 200 203 204 216 214 190 193 183 165 132 63 230 228 199 189 209 244 142 98 80 97 194 184 165 183 148 76 141 168 195 208 171 194 211 203 214 206 193 240 242 341 307 281 261 176 155 323 183 168 163 177 272 164 167 186 175 175 224 260 245 231 225 237 239 294 16 27 13 245 291 327 71 64 47 71 91 99 103 104 100 97 94 86 77
199 201 205 206 207 209 210 219 227 188 173 156 141 130 169 224 241 133 204 221 211 116 99 68 46 224 220 233 201 139 109 207 166 171 180 160 201 230 211 216 213 197 191 265 292 219 244 293 188 170 162 173 185 202 206 130 163 195 202 163 173 194 214 238 245 245 251 273 312 4 29 258 208 332 52 86 84 67 74 82 86 89 93 92 91 87 80 71
192 195 205 212 217 216 207 210 212 179 165 148 144 184 202 219 226 190 234 243 183 138 120 75 83 190 241 241 201 164 147 189 172 160 185 196 205 220 223 204 189 180 165 213 241 187 224 257 164 155 184 164 186 243 347 66 142 231 216 109 198 210 196 244 263 247 241 297 285 239 226 249 191 93 92 94 89 85 85 88 89 87 84 83 78 74 74 73
182 189 207 213 221 220 207 203 195 176 167 152 178 209 219 218 210 212 267 336 327 97 91 192 177 171 258 258 207 187 109 103 175 160 193 216 227 234 233 164 159 185 183 187 235 30 227 233 123 175 224 166 187 240 43 87 103 21 60 131 232 219 137 249 282 272 246 261 259 239 249 275 7 82 115 107 96 98 98 95 96 94 88 82 77 82 85 77
177 183 216 217 218 216 205 200 193 180 173 180 196 215 226 208 224 259 6 18 316 19 52 152 259 303 266 289 221 176 125 60 186 188 221 225 233 230 215 159 73 201 207 169 253 212 152 244 230 201 191 249 285 19 355 240 114 100 193 247 287 347 44 157 253 269 258 257 253 251 268 276 277 258 132 121 113 110 108 104 104 104 100 98 103 104 92 78
168 170 251 234 220 210 195 194 195 182 158 199 214 231 239 178 269 317 54 77 287 34 75 187 253 317 283 291 319 126 125 74 180 174 206 236 229 107 154 151 32 332 309 68 76 278 89 301 257 191 145 196 216 38 318 273 86 119 194 295 52 339 300 247 214 229 243 258 257 242 260 266 247 236 152 159 145 126 125 125 120 119 119 121 124 115 104 98
157 165 268 234 217 206 188 186 188 176 165 204 219 233 222 210 263 278 102 80 20 75 148 219 222 260 261 259 283 133 151 198 211 185 172 224 232 75 69 61 44 344 349 64 111 335 73 166 262 88 96 101 44 54 156 298 0 55 44 357 82 171 213 226 253 243 232 257 267 247 255 261 251 303 347 135 139 139 143 137 125 122 123 127 130 128 129 128
159 192 247 193 200 196 179 173 177 188 204 209 214 218 221 238 244 236 193 149 166 134 186 220 213 231 251 254 259 253 187 213 248 245 240 272 277 28 43 24 87 39 1 36 92 32 55 223 244 329 62 75 84 198 186 210 251 63 48 292 242 197 214 242 271 240 219 251 264 257 258 251 246 351 29 96 118 137 138 128 122 119 121 131 141 150 161 159
173 246 204 166 183 178 162 160 190 200 205 216 221 216 220 226 203 186 160 164 196 129 106 209 228 238 247 252 254 247 200 239 242 243 246 240 248 267 11 358 40 115 34 33 69 83 276 233 244 275 275 231 227 222 215 247 281 301 180 209 215 211 203 260 261 228 201 231 238 251 261 247 215 341 41 86 97 107 112 115 122 138 152 161 167 168 170 167
203 219 143 163 175 169 154 172 218 197 211 217 212 208 202 205 191 171 157 164 194 188 127 195 234 239 236 243 251 225 194 239 232 234 255 239 235 244 303 339 354 49 76 75 107 94 83 88 279 271 260 260 270 277 285 296 299 291 271 230 225 231 202 237 257 256 253 255 245 251 260 251 226 310 55 91 105 108 120 135 144 163 175 169 170 170 166 163
203 199 120 162 174 168 157 206 210 207 233 215 202 208 196 196 201 179 171 171 181 186 183 203 220 225 228 231 246 242 229 238 233 229 246 259 254 272 130 172 17 35 31 313 29 55 57 81 239 265 266 272 278 278 279 282 278 269 269 265 260 286 292 245 225 203 283 269 266 261 258 261 269 292 62 99 114 116 141 160 157 168 172 166 172 169 164 164
199 183 88 175 182 179 180 210 203 212 228 218 216 214 203 211 213 195 186 182 177 181 189 206 219 223 226 223 232 237 225 232 241 231 230 239 232 70 72 58 42 48 21 341 285 297 319 62 124 279 281 287 285 283 296 346 11 345 302 340 357 342 336 341 283 169 208 237 247 257 261 262 247 122 105 132 138 147 172 171 158 164 171 177 180 168 163 161
193 169 92 185 192 195 209 218 208 217 220 222 230 224 217 224 210 203 203 192 183 187 191 209 219 222 235 231 225 218 208 222 243 254 269 242 154 71 48 33 37 62 75 65 72 79 261 199 125 187 237 255 267 269 268 41 21 332 301 324 333 317 309 319 312 277 265 249 247 263 267 272 291 248 223 199 187 190 191 185 183 192 193 191 183 171 169 167
201 190 162 172 199 218 241 242 236 238 220 219 231 227 223 226 212 200 209 208 206 207 211 226 203 183 247 232 227 233 230 229 231 250 269 219 159 68 77 69 67 94 108 90 82 87 81 263 217 210 230 245 259 272 290 317 306 283 292 297 290 283 282 283 267 257 269 291 281 263 266 278 286 277 267 219 193 200 200 202 210 215 213 203 185 174 173 171
223 219 183 168 187 214 230 237 228 229 225 217 217 216 219 223 217 201 206 210 207 206 213 216 197 191 200 203 216 238 239 236 232 237 238 223 211 170 132 103 90 115 122 113 161 126 117 248 241 230 241 252 262 277 291 299 287 274 278 279 275 275 269 254 250 255 273 295 269 261 270 278 275 277 290 293 251 229 222 226 227 219 210 199 179 170 169 176
235 256 212 189 194 201 210 219 215 217 225 228 224 220 221 218 210 200 192 181 173 194 205 206 206 211 214 212 215 223 231 237 239 242 243 225 191 163 154 99 96 148 154 135 168 125 123 249 259 255 261 265 267 272 276 280 280 275 272 271 274 274 264 256 258 261 257 255 261 268 272 270 271 278 286 293 293 287 280 275 263 211 182 174 165 167 172 182
223 279 279 284 258 204 204 207 207 213 221 226 233 233 229 224 214 198 158 146 165 210 202 207 216 216 221 231 228 224 232 233 229 242 260 69 70 102 145 65 80 137 124 94 123 87 105 240 255 252 263 270 267 267 272 276 276 273 268 266 266 266 266 268 270 267 260 260 266 272 270 269 275 281 282 291 301 304 314 327 351 91 124 142 152 165 180 192
252 316 286 306 312 246 205 201 196 205 219 223 229 232 230 232 225 201 144 150 172 191 196 211 224 193 113 179 238 236 241 155 127 148 105 88 54 64 105 287 87 80 51 58 328 328 0 249 282 318 289 275 269 273 282 283 280 279 277 271 265 264 269 270 268 268 268 268 267 268 270 273 275 280 291 323 5 15 37 46 53 83 110 131 154 179 195 203
272 316 298 297 246 184 101 200 195 198 215 218 223 226 220 226 226 204 146 153 149 160 184 191 191 143 108 110 52 49 86 93 100 105 89 92 110 56 30 26 89 95 73 83 331 337 317 277 321 333 273 267 271 276 283 319 319 284 270 265 261 262 264 260 259 261 260 265 270 271 271 270 265 351 31 65 65 45 49 65 63 94 128 141 172 211 214 213
251 279 259 267 269 188 162 180 197 202 215 216 220 225 223 230 226 207 198 124 75 71 132 153 147 134 144 181 139 95 101 100 100 94 82 86 85 56 29 34 106 141 161 158 159 189 198 206 247 246 255 264 265 263 275 26 315 270 258 255 252 253 255 256 257 256 253 257 265 266 259 239 206 123 3 6 73 63 35 30 43 47 68 119 200 230 236 232